This is the latest recevied weather packets stored in our database for station/object AA4OM-2. If no packets are shown the sender has not sent any weather packets the latest 10 day(s).
| Time | Temp. | Humidity | Pressure | Rain* | Wind** | Luminosity | Snow |
|---|---|---|---|---|---|---|---|
| 1777476459 | 16.67° C | 88% | 1015.6 hPa | 0 mm | - | 142 W/m² | - |
| 1777476156 | 16.67° C | 89% | 1015.4 hPa | 0 mm | - | 199 W/m² | - |
| 1777475851 | 16.67° C | 89% | 1015.3 hPa | 0 mm | - | 260 W/m² | - |
| 1777475244 | 17.22° C | 89% | 1015.1 hPa | 0 mm | - | 109 W/m² | - |
| 1777474939 | 17.22° C | 89% | 1015.1 hPa | 0 mm | - | 138 W/m² | - |
| 1777474635 | 17.22° C | 89% | 1014.9 hPa | 0 mm | - | 136 W/m² | - |
| 1777474029 | 17.22° C | 89% | 1014.6 hPa | 0 mm | - | 96 W/m² | - |
| 1777473423 | 17.22° C | 90% | 1014.7 hPa | 0 mm | - | 84 W/m² | - |
| 1777473119 | 17.22° C | 91% | 1014.8 hPa | 0 mm | - | 81 W/m² | - |
| 1777472209 | 17.78° C | 90% | 1014.2 hPa | 0 mm | - | 70 W/m² | - |
| 1777471602 | 17.78° C | 90% | 1014 hPa | 0 mm | - | 192 W/m² | - |
| 1777469477 | 17.78° C | 93% | 1013.4 hPa | 0 mm | - | 93 W/m² | - |
| 1777469176 | 17.78° C | 93% | 1013.3 hPa | 0 mm | - | 81 W/m² | - |
| 1777468568 | 17.78° C | 94% | 1013.2 hPa | 0 mm | - | 98 W/m² | - |
| 1777467657 | 17.78° C | 97% | 1012.9 hPa | 0 mm | - | 36 W/m² | - |
| 1777466139 | 17.78° C | 98% | 1012.4 hPa | 0 mm | - | 25 W/m² | - |
| 1777465836 | 17.78° C | 98% | 1012.1 hPa | 0 mm | - | 23 W/m² | - |
| 1777465226 | 17.78° C | 98% | 1012.2 hPa | 0 mm | - | 28 W/m² | - |
| 1777462790 | 17.78° C | 97% | 1012.2 hPa | 0 mm | - | 11 W/m² | - |
| 1777462486 | 17.78° C | 97% | 1012.4 hPa | 0 mm | - | 8 W/m² | - |
| 1777462183 | 17.78° C | 97% | 1012.1 hPa | 0 mm | - | 7 W/m² | - |
| 1777461576 | 17.78° C | 97% | 1012.2 hPa | 0 mm | - | 5 W/m² | - |
| 1777461271 | 17.78° C | 96% | 1012 hPa | 0 mm | - | 3 W/m² | - |
| 1777460967 | 17.78° C | 96% | 1012.2 hPa | 0 mm | - | 2 W/m² | - |
| 1777460663 | 17.78° C | 96% | 1012.2 hPa | 0 mm | - | 1 W/m² | - |
* Rain latest hour (hover to see other rain measurements)
** Current wind speed in m/s (hover to see current wind gust speed)